Find Flock 4be-31

NORAD ID: 60488 Int'l Des: 2024-149 Owner: PLAN Country: US Constellation: planet operational
LEOCIRCULARRETROGRADESSO

Live Position

Loading 3D Globe...

About Flock 4be-31

Description loading...

Upcoming Passes

Passes for default location (London). Set your location on the main map for personalized predictions.

Altitude History

Loading altitude history...

Two-Line Element Set

1 60488U 24149W 26105.69145147 .00011807 00000-0 28130-3 0 9991
2 60488 97.3809 190.1672 0003993 129.5922 230.5678 15.41740662 92743
Epoch: Apr 15, 2026 • Age: 26 hours

Current Status

Altitude 441.2 km
Velocity 7.65 km/s
Sub-Earth Point 16.33°N, 104.86°W
Launch Date Aug 16, 2024
Age 1.6 years
Type earth observation

Technical Details

Classification Payload
Mass 5.70 kg
Dry Mass 5.70 kg
Total Mass 5.70 kg
Length 0.30 m
Diameter 0.10 m
Span 0.30 m
Shape Box+2 pan
Manufacturer PLAN
Bus Type Cubesat 3U
Phase Status In Orbit
Owner/State PLAN/US

Most Searched